TimeCDT,TemperatureF,Dew PointF,Humidity,Sea Level PressureIn,VisibilityMPH,Wind Direction,Wind SpeedMPH,Gust SpeedMPH,PrecipitationIn,Events,Conditions,WindDirDegrees,DateUTC
12:53 AM,39.0,37.0,93,30.00,10.0,Calm,Calm,-,N/A,,Clear,0,2012-10-16 05:53:00
1:53 AM,39.0,36.0,89,29.99,10.0,ESE,3.5,-,N/A,,Clear,120,2012-10-16 06:53:00
2:53 AM,37.9,36.0,93,29.98,9.0,Calm,Calm,-,N/A,,Clear,0,2012-10-16 07:53:00
3:53 AM,37.0,35.1,93,29.97,10.0,Calm,Calm,-,N/A,,Clear,0,2012-10-16 08:53:00
4:53 AM,34.0,33.1,96,29.97,5.0,East,3.5,-,N/A,,Clear,90,2012-10-16 09:53:00
5:53 AM,37.0,35.1,93,29.97,9.0,Calm,Calm,-,N/A,,Clear,0,2012-10-16 10:53:00
7:53 AM,37.9,35.1,89,29.96,7.0,Calm,Calm,-,N/A,,Clear,0,2012-10-16 12:53:00
8:53 AM,46.0,39.9,79,29.95,10.0,SSE,5.8,-,N/A,,Clear,150,2012-10-16 13:53:00
9:53 AM,53.1,42.1,66,29.94,10.0,SSE,6.9,-,N/A,,Clear,160,2012-10-16 14:53:00
10:53 AM,57.0,42.1,57,29.91,10.0,SSE,13.8,-,N/A,,Clear,150,2012-10-16 15:53:00
11:53 AM,61.0,42.1,50,29.88,10.0,South,12.7,20.7,N/A,,Clear,170,2012-10-16 16:53:00
12:53 PM,64.0,43.0,46,29.83,10.0,South,10.4,20.7,N/A,,Clear,170,2012-10-16 17:53:00
1:53 PM,64.9,43.0,45,29.79,10.0,SSE,17.3,26.5,N/A,,Clear,150,2012-10-16 18:53:00
2:53 PM,66.0,43.0,43,29.75,10.0,SE,16.1,24.2,N/A,,Clear,140,2012-10-16 19:53:00
3:53 PM,64.9,44.1,47,29.70,10.0,South,15.0,23.0,N/A,,Clear,170,2012-10-16 20:53:00
4:53 PM,64.9,45.0,48,29.68,10.0,SSE,11.5,-,N/A,,Clear,160,2012-10-16 21:53:00
5:53 PM,64.0,45.0,50,29.66,10.0,SSE,12.7,19.6,N/A,,Clear,160,2012-10-16 22:53:00
6:53 PM,62.1,45.0,53,29.65,10.0,South,12.7,-,N/A,,Partly Cloudy,170,2012-10-16 23:53:00
7:53 PM,61.0,46.0,58,29.64,10.0,South,11.5,-,N/A,,Clear,170,2012-10-17 00:53:00
8:53 PM,62.1,48.0,60,29.62,10.0,South,13.8,21.9,N/A,,Mostly Cloudy,180,2012-10-17 01:53:00
9:53 PM,62.1,48.0,60,29.63,10.0,South,13.8,19.6,N/A,,Mostly Cloudy,180,2012-10-17 02:53:00
10:53 PM,62.1,48.0,60,29.64,10.0,South,12.7,18.4,N/A,,Mostly Cloudy,180,2012-10-17 03:53:00
11:53 PM,61.0,48.9,64,29.63,10.0,South,11.5,-,N/A,,Clear,190,2012-10-17 04:53:00